Regional Weather Roundup
Issued by NWS

Home | Current Version | Previous Version | Text Only | Print | Product List | Glossary Off
Versions: 1 2 3 4 5 6 7 8 9 10 11 12 13 14 15 16 17 18 19 20 21 22 23 24 25 26 27

000
ASUS45 KCYS 251310
RWRWY

WYOMING REGIONAL WEATHER ROUNDUP
NATIONAL WEATHER SERVICE CHEYENNE WY
700 AM MDT WED APR 25 2018

NOTE:  "FAIR" INDICATES FEW OR NO CLOUDS BELOW 12,000 FEET
WITH NO SIGNIFICANT WEATHER AND/OR OBSTRUCTIONS TO VISIBILITY.

WYZ001-251400-
YELLOWSTONE NATIONAL PARK

CITY           SKY/WX    TMP DP  RH WIND       PRES   REMARKS
LK YELLOWSTONE   N/A     13   9  84 CALM      30.37F
W YELLOWSTONE  NOT AVBL

$$
WYZ002>013-054>058-071-098>099-251400-
NORTHERN WYOMING

CITY           SKY/WX    TMP DP  RH WIND       PRES   REMARKS
JACKSON        FAIR      23  18  81 NE3       30.37S
CODY           FAIR      39  17  41 SW9       30.23F WCI  33
GREYBULL       FAIR      32  28  85 CALM      30.27F
WORLAND        FAIR      24  22  91 W3        30.26F
SHERIDAN       FAIR      28  23  81 CALM      30.16F
BUFFALO        FAIR      35   9  33 S3        30.17F
GILLETTE       FAIR      33  25  72 S13       30.20F WCI  24
HULETT         FAIR      39  27  60 S14       30.22F WCI  31
NEWCASTLE      FAIR      28  23  80 CALM      30.30F

$$
WYZ014>020-022>026-101>103-251400-
CENTRAL WYOMING

CITY           SKY/WX    TMP DP  RH WIND       PRES   REMARKS
BIG PINEY      FAIR      18  14  84 N3        30.39S
PINEDALE       FAIR      19  18  93 NW5       30.39F WCI  13
DUBOIS         FAIR      30  18  59 NW17      30.28F WCI  18
LANDER         FAIR      29  18  63 CALM      30.28F
RIVERTON       FAIR      23  19  85 CALM      30.30F
CASPER         FAIR      33  22  63 SW21G28   30.29F WCI  21
DOUGLAS        FAIR      18  16  92 CALM      30.31S

$$
WYZ021-027>030-104>119-251400-
SOUTHERN WYOMING

CITY           SKY/WX    TMP DP  RH WIND       PRES   REMARKS
EVANSTON       FAIR      27  18  69 E7        30.34S WCI  19
KEMMERER       FAIR      27  19  74 N9        30.36S WCI  17
ROCK SPRINGS   FAIR      23  16  74 E3        30.38R
DIXON          FAIR      19  16  86 CALM      30.42S
RAWLINS        FAIR      19  14  81 CALM      30.37S
SARATOGA       FAIR      19  16  86 CALM      30.38S
LARAMIE        FAIR      20  17  88 E5        30.33S WCI  13
CHEYENNE       FAIR      25  22  88 W6        30.32S WCI  18
TORRINGTON     FAIR      24  24 100 CALM      30.32S
PINE BLUFFS    FAIR      23  21  93 MISG      30.35R

$$




USA.gov is the U.S. government's official web portal to all federal, state and local government web resources and services.